Weather in Miskovo

Russia / Kostroma Oblast     58°05′39″N   41°04′15″E
temp.,
°C
wind,
m/s
gust,
m/s
humid.,
%
clouds,
%
prec.,
mm/h
press.,
hPa
HPBL,
m
14 april, wed
wed1400:00+9sse378072 0.0 1023106
03:00+9sse3127764 0.0 1023222
06:00+7sse311805 0.0 1022207
09:00+13s411648 0.0 1021388
12:00+17s59495 0.0 1020805
15:00+19s494241 0.0 10191658
18:00+15s2559100 0.0 101893
21:00+11sse38715 0.0 1019141
15 april, thu
thu1500:00+9ssw257562 0.0 101871
03:00+8wsw118293 0.0 101810
06:00+7n269781 0.0 1019146
09:00+8nne4890100 0.0 1021411
12:00+7nne51085100 0.1 1022566
15:00+6ne51285100 0.4 1024666
18:00+5ne51288100 0.5 1025702
21:00+5ne4128497 0.6 1026747
16 april, fri
fri1600:00+4ne51372100 0.0 1027679
03:00+3ne5137333 0.0 1028597
06:00+1ne5147474 0.0 1028542
09:00+5ene510555 0.0 1029702
12:00+9ene57404 0.0 10291102
15:00+11ene56355 0.0 10291332
18:00+9ne37455 0.0 1029519
21:00+4ne39665 0.0 1031174
17 april, sat
sat1700:00+3ne28725 0.0 1031165
03:00+1ne27765 0.0 1032132
06:00+1ne27775 0.0 1033155
09:00+7ne355123 0.0 1034525
12:00+11ne35415 0.0 10331404
15:00+12nne45385 0.0 10321681
18:00+10nne37485 0.0 1032601
21:00+5ne27705 0.0 1033144
18 april, sun
sun1800:00+4ne26761 0.0 1034113
03:00+3ene26825 0.0 1034119
06:00+2ene24825 0.0 103594
09:00+8ene24570 0.0 1035579
12:00+11ene23445 0.0 10341551
15:00+13ne234121 0.0 10331883
18:00+12ne23505 0.0 1032108
21:00+7ene22665 0.0 103325